Location: Unspecified
(0.0000°N, 0.0000°E)
Time: 12:40:26
(UTC+00:00)

deb OV3-4 - Pass Details

Date: 15 June 2025
Orbit: 581 x 4212 km, 40.6° (Epoch: 19 July)

Event Time Altitude Azimuth Distance (km) Brightness Sun altitude
Rises 21:23:24 0° 317° (NW) 8,371 ? -45.3°
Reaches altitude 10° 21:29:13 10° 319° (NW) 7,407 ? -46.5°
Enters shadow 21:54:00 76° 22° (NNE) 3,550 ? -51.4°
